Location: Utrecht
(52.0907°N, 5.1214°E)
Time: 16:12:48
(UTC+02:00)

ESTCUBE 1 - Pass Details

Date: 03 July 2022
Orbit: 646 x 657 km, 97.9° (Epoch: 08 August)

Event Time Altitude Azimuth Distance (km) Brightness Sun altitude
Exits shadow 22:51:53 - 137° (SE) 2,247 ? -6.1°
Reaches altitude 10° 22:52:24 10° 135° (SE) 2,047 ? -6.2°
Maximum altitude 22:56:33 40° 66° (ENE) 968 ? -6.6°
Drops below altitude 10° 23:00:44 10° 358° (N) 2,066 ? -7.0°
Sets 23:03:04 0° 351° (N) 2,983 ? -7.2°
